CZ-6A DEB, 61163

Orbit data source: Space-Track

CZ-6A DEB, 61163 is space debris in LEO originally from a launch on Tue, 06 Aug 2024 UTC launched from the Taiyaun Space Center, China (TSC). Debris objects in space refer to the collection of defunct objects orbiting the Earth. Examples of debris include non-operational satellites, rocket bodies, and fragments generated from explosions, collisions, or faulty payload assembly.

Loading next visibility...
Identifier
61163, 2024-140RH
Orbit
LEO
Country
Flag of CNCN / PRC
Related business
Manufacturer
SAST
Mission
Spacecraft
Bus & Motor
Unknown
Mass
Unknown
Launch date (UTC)
2024-08-06 (2 years ago)
Launch vehicle
Unknown
Launch site
Taiyaun Space Center, China (TSC)
Object type
Payload
Rocket body
Debris
Shape & HBR
Unknown shape, 0.1 m
Radar Cross Section
Medium (>0.1 m² and <1 m²)

Expand to show TLE details & history
Last TLE update: 18 hours ago

TLE from 18 hours ago
0 CZ-6A DEB
1 61163U 24140RH  26171.16436639  .00060159  00000-0  15522-2 0  9991
2 61163  88.6794 234.8756 0080971  40.2665 320.4546 15.35573580100258
Epoch: 2026-06-20T03:56Z
TLE epoch observation values (Epoch: 2026-06-20T03:56:41.256Z)
Latitude
-0.00006°
Longitude
-92.67922°
Altitude
419.915 km
Speed
7.683 km/s
True Right ascension
15h 39m 30s
True Declination
0° 00' 00"
Sunlit
Object was in full shadow at epoch
Visualization orbit readout
Latitude
Unknown
Longitude
Unknown
Altitude
Unknown
Speed
Unknown
Apparent Right ascension
Unknown
Apparent Declination
Unknown
Sunlit
N/A
Visualization observer readout
Local Sidereal Time
08:42:26
Azimuth
Unknown
Elevation
Unknown
Doppler factor
Unknown
Orbital elements
Apogee altitude
511.344 km
Perigee altitude
400.67 km
Semi-major axis
6,834.144 km
Eccentricity
0.0081
Inclination
88.6794°
RAAN
234.8756°
Arg. of periapsis
40.2665°
True anomaly
319.85921°
Mean anomaly
320.4546°
Eccentric anomaly
320.15737°
Mean motion
3.84164 °/min
Orbital period
93.71 mins
BSTAR
0.0015522
Loading maneuver chart data...
Computing Atmospheric mass density...
Loading historical data...
Loading historical data...
Loading historical data...
Loading historical data...
Loading historical data...
Loading historical data...
Loading historical data...

Documentation

Showing up to 5 results
|